Time,TemperatureF,DewpointF,PressureIn,WindDirection,WindDirectionDegrees,WindSpeedMPH,WindSpeedGustMPH,Humidity,HourlyPrecipIn,Conditions,Clouds,dailyrainin,SoftwareType,DateUTC
2013-10-06 00:22:00,42.0,40.0,29.76,West,268,0.0,1.0,91,0.00,,,0.00,,2013-10-06 05:22:00,
2013-10-06 00:52:00,41.0,39.0,29.75,West,268,0.0,0.0,92,0.00,,,0.00,,2013-10-06 05:52:00,
2013-10-06 01:12:00,42.0,40.0,29.75,West,268,0.0,0.0,93,0.00,,,0.00,,2013-10-06 06:12:00,
2013-10-06 01:22:00,42.0,40.0,29.74,West,268,0.0,0.0,92,0.00,,,0.00,,2013-10-06 06:22:00,
2013-10-06 01:42:00,42.0,40.0,29.74,West,268,0.0,0.0,91,0.00,,,0.00,,2013-10-06 06:42:00,
2013-10-06 01:52:00,42.0,40.0,29.75,West,268,0.0,0.0,92,0.00,,,0.00,,2013-10-06 06:52:00,
2013-10-06 02:22:00,42.0,40.0,29.74,SSW,212,2.0,3.0,92,0.00,,,0.00,,2013-10-06 07:22:00,
2013-10-06 02:52:00,41.0,39.0,29.72,SSW,210,0.0,1.0,93,0.00,,,0.00,,2013-10-06 07:52:00,
2013-10-06 03:22:00,43.0,41.0,29.72,SSW,198,2.0,3.0,94,0.00,,,0.00,,2013-10-06 08:22:00,
2013-10-06 03:53:00,43.0,41.0,29.71,SSW,195,0.0,1.0,93,0.00,,,0.00,,2013-10-06 08:53:00,
2013-10-06 04:22:00,43.0,41.0,29.71,SSW,195,0.0,2.0,93,0.00,,,0.00,,2013-10-06 09:22:00,
2013-10-06 04:53:00,44.0,42.0,29.71,SSW,195,2.0,4.0,92,0.00,,,0.00,,2013-10-06 09:53:00,
2013-10-06 05:23:00,44.0,42.0,29.70,South,187,2.0,4.0,92,0.00,,,0.00,,2013-10-06 10:23:00,
2013-10-06 05:53:00,44.0,42.0,29.70,South,182,1.0,5.0,92,0.00,,,0.00,,2013-10-06 10:53:00,
2013-10-06 06:21:00,45.0,43.0,29.70,South,181,1.0,3.0,91,0.00,,,0.00,,2013-10-06 11:21:00,
2013-10-06 06:52:00,45.0,43.0,29.70,South,181,1.0,5.0,92,0.00,,,0.00,,2013-10-06 11:52:00,
2013-10-06 07:12:00,45.0,43.0,29.71,South,181,3.0,5.0,91,0.00,,,0.00,,2013-10-06 12:12:00,
2013-10-06 07:22:00,45.0,43.0,29.70,South,181,3.0,6.0,91,0.00,,,0.00,,2013-10-06 12:22:00,
2013-10-06 07:52:00,45.0,43.0,29.71,South,182,3.0,6.0,91,0.00,,,0.00,,2013-10-06 12:52:00,
2013-10-06 08:11:00,45.0,43.0,29.70,South,184,2.0,5.0,91,0.00,,,0.00,,2013-10-06 13:11:00,
2013-10-06 08:21:00,46.0,43.0,29.71,South,184,3.0,6.0,90,0.00,,,0.00,,2013-10-06 13:21:00,
2013-10-06 08:42:00,46.0,43.0,29.71,SSW,192,3.0,6.0,90,0.00,,,0.00,,2013-10-06 13:42:00,
2013-10-06 08:52:00,46.0,43.0,29.71,SW,225,5.0,8.0,90,0.00,,,0.00,,2013-10-06 13:52:00,
2013-10-06 09:22:00,46.0,41.0,29.71,WSW,244,5.0,8.0,83,0.00,,,0.00,,2013-10-06 14:22:00,
2013-10-06 09:42:00,46.0,41.0,29.71,WSW,252,7.0,11.0,83,0.00,,,0.00,,2013-10-06 14:42:00,
2013-10-06 09:52:00,46.0,41.0,29.71,West,264,5.0,9.0,83,0.00,,,0.00,,2013-10-06 14:52:00,
2013-10-06 10:22:00,47.0,42.0,29.72,WSW,244,3.0,8.0,83,0.00,,,0.00,,2013-10-06 15:22:00,
2013-10-06 10:54:00,46.0,43.0,29.72,SSW,201,5.0,9.0,90,0.00,,,0.00,,2013-10-06 15:54:00,
2013-10-06 11:12:00,46.0,43.0,29.72,WSW,239,7.0,10.0,89,0.00,,,0.00,,2013-10-06 16:12:00,
2013-10-06 11:23:00,46.0,43.0,29.72,West,277,5.0,12.0,88,0.00,,,0.00,,2013-10-06 16:23:00,
2013-10-06 11:42:00,47.0,43.0,29.72,WNW,288,5.0,10.0,85,0.00,,,0.00,,2013-10-06 16:42:00,
2013-10-06 11:53:00,49.0,44.0,29.72,South,190,4.0,8.0,82,0.00,,,0.00,,2013-10-06 16:53:00,
2013-10-06 12:22:00,51.0,43.0,29.72,South,183,5.0,10.0,75,0.00,,,0.00,,2013-10-06 17:22:00,
2013-10-06 12:42:00,51.0,43.0,29.71,SW,215,1.0,8.0,75,0.00,,,0.00,,2013-10-06 17:42:00,
2013-10-06 12:52:00,51.0,40.0,29.71,SW,233,3.0,8.0,67,0.00,,,0.00,,2013-10-06 17:52:00,
2013-10-06 13:12:00,50.0,41.0,29.71,WSW,242,5.0,10.0,71,0.00,,,0.00,,2013-10-06 18:12:00,
2013-10-06 13:21:00,49.0,41.0,29.71,WSW,248,11.0,16.0,73,0.00,,,0.00,,2013-10-06 18:21:00,
2013-10-06 13:42:00,47.0,43.0,29.71,SW,234,5.0,7.0,85,0.02,,,0.02,,2013-10-06 18:42:00,
2013-10-06 13:52:00,48.0,44.0,29.70,West,267,2.0,5.0,85,0.02,,,0.02,,2013-10-06 18:52:00,
2013-10-06 14:22:00,50.0,43.0,29.69,WSW,250,5.0,10.0,77,0.02,,,0.02,,2013-10-06 19:22:00,
2013-10-06 14:42:00,50.0,42.0,29.68,West,265,3.0,11.0,75,0.00,,,0.02,,2013-10-06 19:42:00,
2013-10-06 14:53:00,50.0,42.0,29.68,WNW,285,5.0,9.0,73,0.00,,,0.02,,2013-10-06 19:53:00,
2013-10-06 15:22:00,50.0,41.0,29.68,WNW,287,5.0,11.0,72,0.00,,,0.02,,2013-10-06 20:22:00,
2013-10-06 15:52:00,49.0,40.0,29.69,West,265,6.0,10.0,72,0.00,,,0.02,,2013-10-06 20:52:00,
2013-10-06 16:22:00,49.0,41.0,29.69,WSW,243,6.0,11.0,75,0.00,,,0.02,,2013-10-06 21:22:00,
2013-10-06 16:54:00,49.0,42.0,29.70,WSW,257,5.0,7.0,78,0.00,,,0.02,,2013-10-06 21:54:00,
2013-10-06 17:24:00,49.0,43.0,29.71,West,267,4.0,9.0,79,0.00,,,0.02,,2013-10-06 22:24:00,
2013-10-06 17:53:00,48.0,43.0,29.72,SW,228,5.0,14.0,84,0.00,,,0.02,,2013-10-06 22:53:00,
2013-10-06 18:22:00,47.0,44.0,29.73,WNW,292,5.0,9.0,88,0.00,,,0.02,,2013-10-06 23:22:00,
2013-10-06 18:53:00,47.0,44.0,29.74,West,273,4.0,9.0,90,0.00,,,0.02,,2013-10-06 23:53:00,
2013-10-06 19:12:00,47.0,44.0,29.75,WSW,257,2.0,6.0,90,0.00,,,0.02,,2013-10-07 00:12:00,
2013-10-06 19:22:00,47.0,45.0,29.75,WNW,283,3.0,7.0,91,0.00,,,0.02,,2013-10-07 00:22:00,
2013-10-06 19:42:00,47.0,45.0,29.76,WSW,258,3.0,6.0,91,0.00,,,0.02,,2013-10-07 00:42:00,
2013-10-06 19:52:00,47.0,45.0,29.75,West,265,2.0,4.0,91,0.00,,,0.02,,2013-10-07 00:52:00,
2013-10-06 20:22:00,47.0,45.0,29.76,WSW,251,2.0,3.0,92,0.00,,,0.02,,2013-10-07 01:22:00,
2013-10-06 20:42:00,47.0,45.0,29.77,West,265,1.0,4.0,92,0.00,,,0.02,,2013-10-07 01:42:00,
2013-10-06 20:53:00,47.0,45.0,29.77,West,265,1.0,3.0,93,0.00,,,0.02,,2013-10-07 01:53:00,
2013-10-06 21:22:00,47.0,45.0,29.78,West,265,1.0,2.0,93,0.00,,,0.02,,2013-10-07 02:22:00,
2013-10-06 21:42:00,47.0,45.0,29.78,West,265,1.0,2.0,93,0.00,,,0.02,,2013-10-07 02:42:00,
2013-10-06 21:53:00,47.0,45.0,29.78,West,265,0.0,2.0,93,0.00,,,0.02,,2013-10-07 02:53:00,
2013-10-06 22:22:00,47.0,45.0,29.78,West,265,0.0,0.0,94,0.00,,,0.02,,2013-10-07 03:22:00,
2013-10-06 22:54:00,48.0,46.0,29.79,West,273,4.0,7.0,94,0.00,,,0.02,,2013-10-07 03:54:00,
2013-10-06 23:13:00,47.0,45.0,29.78,West,267,2.0,6.0,94,0.00,,,0.02,,2013-10-07 04:13:00,
2013-10-06 23:24:00,47.0,45.0,29.79,WSW,249,3.0,6.0,94,0.00,,,0.02,,2013-10-07 04:24:00,
2013-10-06 23:44:00,48.0,46.0,29.79,WSW,257,4.0,7.0,94,0.00,,,0.02,,2013-10-07 04:44:00,
2013-10-06 23:53:00,48.0,46.0,29.79,West,273,4.0,7.0,94,0.00,,,0.02,,2013-10-07 04:53:00,